User: anonymous   Login
Location: Chippewa Lake
(41.0698°N, 81.9010°W)
Time: 07:48:36
(UTC+00:00)
Language:

Cosmos 2084 - Orbit

View from above orbital plane
View from above orbital plane
View from above satellite
View from above satellite

Ground track
Ground track

The orbit data is extracted from the following two-line orbital elements,

1 20663U 90055A   21335.06587477  .00000268  00000-0  42085-4 0  9993
2 20663  62.7921 192.7791 0094565  28.3628 332.2567 14.92393015702699
Epoch (UTC): 01 December 2021 01:34:51
Eccentricity: 0.0094565
inclination: 62.7921°
perigee height: 524 km
apogee height: 656 km
right ascension of ascending node: 192.7791°
argument of perigee: 28.3628°
revolutions per day: 14.92393015
mean anomaly at epoch: 332.2567°
orbit number at epoch: 70269

The dashed part of the orbit path shows where the satellite is in the earth's shadow,  

DLR